Location: New Town
(33.2710°N, 90.7534°W)
Time: 02:40:29
(UTC+00:00)

ISS - Pass Details

Date: 27 April 2021
Orbit: 417 x 422 km, 51.6° (Epoch: 18 May)

Event Time Altitude Azimuth Distance (km) Brightness Sun altitude
Exits shadow 10:45:41 - 283° (WNW) 1,841 -1.0 -7.4°
Reaches altitude 10° 10:47:02 10° 299° (WNW) 1,500 -1.3 -7.1°
Maximum altitude 10:48:46 13° 330° (NNW) 1,313 -1.3 -6.8°
Drops below altitude 10° 10:50:31 10° 1° (N) 1,504 -0.6 -6.4°
Sets 10:53:30 0° 30° (NNE) 2,372 1.0 -5.8°
